EDT,Max TemperatureF,Mean TemperatureF,Min TemperatureF,Max Dew PointF,MeanDew PointF,Min DewpointF,Max Humidity, Mean Humidity, Min Humidity, Max Sea Level PressureIn, Mean Sea Level PressureIn, Min Sea Level PressureIn, Max VisibilityMiles, Mean VisibilityMiles, Min VisibilityMiles, Max Wind SpeedMPH, Mean Wind SpeedMPH, Max Gust SpeedMPH,PrecipitationIn, CloudCover, Events, WindDirDegrees
2013-5-1,73,70,67,67,63,60,90,82,73,30.06,30.02,29.96,10,10,4,17,10,28,0.12,5,Rain,80
2013-5-2,82,74,65,65,62,59,84,69,54,30.03,29.97,29.92,10,10,5,26,11,39,0.06,7,Rain,66
2013-5-3,73,69,65,63,61,57,87,77,66,29.93,29.86,29.81,10,9,3,22,13,30,0.02,8,Rain,73
2013-5-4,70,62,54,65,58,46,93,80,67,29.86,29.82,29.77,10,7,1,18,8,22,0.11,8,Fog-Rain,16
2013-5-5,77,62,47,54,46,39,86,60,33,29.92,29.87,29.82,10,10,10,18,8,25,T,1,,261
2013-5-6,71,58,44,49,43,40,89,62,35,30.02,29.97,29.92,10,10,10,17,6,23,0.00,3,,266
2013-5-7,79,66,53,57,51,46,93,63,32,30.04,29.98,29.94,10,10,10,15,6,26,0.02,4,Fog,278
2013-5-8,82,67,52,63,54,48,93,65,36,30.12,30.07,30.01,10,7,0,13,4,36,0.00,3,Fog,205
2013-5-9,87,72,57,63,58,52,100,66,32,30.16,30.12,30.08,10,6,0,12,3,14,0.00,4,Fog,191
2013-5-10,86,71,56,61,57,52,93,63,32,30.13,30.07,29.98,10,10,6,15,4,20,0.00,0,Fog,179
2013-5-11,84,73,61,69,64,58,93,74,55,30.04,30.01,29.97,10,8,1,15,6,20,0.01,4,Fog-Rain,229
2013-5-12,85,74,63,65,58,45,93,60,26,30.07,30.01,29.96,10,8,0,16,5,29,0.00,3,Fog,323
2013-5-13,79,66,52,53,37,26,65,40,15,30.22,30.15,30.07,10,10,10,17,7,23,0.00,0,,337
2013-5-14,83,64,44,49,41,33,83,52,21,30.29,30.22,30.16,10,10,10,14,3,20,0.00,0,,38
2013-5-15,89,70,51,55,50,47,83,54,25,30.24,30.17,30.09,10,10,10,15,4,21,0.00,0,,142
2013-5-16,85,71,57,61,57,53,86,63,39,30.14,30.07,30.03,10,10,10,14,4,17,0.00,1,,169
2013-5-17,90,75,60,64,59,53,97,63,29,30.11,30.06,30.03,10,5,0,13,4,18,0.00,3,Fog,178
2013-5-18,86,73,59,67,61,56,90,67,43,30.14,30.08,30.03,10,10,9,12,2,15,0.02,2,Fog-Rain,139
2013-5-19,91,76,61,66,62,59,93,65,36,30.10,30.05,29.99,10,10,8,14,3,17,0.00,1,Fog,158
2013-5-20,95,81,67,70,64,51,87,56,24,30.09,30.03,29.97,10,10,10,10,5,,0.00,1,,135
2013-5-21,92,80,67,69,65,60,90,63,36,30.05,30.00,29.92,10,10,7,20,4,24,0.00,2,Fog,150
2013-5-22,94,84,73,69,64,59,87,61,34,30.01,29.96,29.89,10,10,10,14,2,17,0.00,3,Thunderstorm,124
2013-5-23,95,81,67,70,61,50,93,58,23,30.02,29.98,29.94,10,10,10,17,5,22,0.00,2,Fog,306
2013-5-24,94,81,68,67,55,41,90,47,12,30.14,30.06,29.99,10,10,9,16,6,23,0.00,0,Fog,347
2013-5-25,89,72,55,52,48,42,77,48,19,30.25,30.18,30.14,10,10,10,15,5,23,0.00,0,,50
2013-5-26,92,74,55,60,54,47,83,53,23,30.24,30.18,30.14,10,10,10,13,3,16,0.00,1,,170
2013-5-27,93,77,61,63,56,44,84,52,20,30.22,30.15,30.09,10,10,10,16,5,23,0.00,0,,116
2013-5-28,91,78,65,63,59,54,81,55,29,30.17,30.13,30.06,10,10,10,16,7,21,0.00,1,,112
2013-5-29,91,81,71,70,66,62,87,64,41,30.15,30.10,30.04,10,10,2,9,8,14,0.07,5,Rain-Thunderstorm,125
2013-5-30,92,82,71,70,68,63,93,67,41,30.15,30.10,30.03,10,10,10,24,7,31,T,6,,109
2013-5-31,93,82,71,72,66,62,84,61,38,30.14,30.08,30.01,10,10,9,17,9,24,T,3,Rain,125